DELTA 1 DEB

Satellite information

Favourite Embed

Satellite Type and Status

DEBRISIN ORBIT

Key statistics

Satellite DELTA 1 DEB at a glance.

Uptime

18447

Days in orbit

Revolutions

≈ 14.8

Per day

Orbit

SSO

Sun Synchronous Orbit

Inclination

100.0

Latest

Satellite identification and parameters

Extended collection of information and parameters for DELTA 1 DEB.

Object identification

Identified? True

Debris? True

Object name: DELTA 1 DEB

International designator: 1975-052KA

Object number (NORAD): 26036

Object ID (CCSDS): 26036

Country: UNITED STATES OF AMERICA (US)

Current information (Y/N): Y

RCS size: SMALL

Orbital parameters

Period: 97.423 minutes

Inclination: 99.9507 deg

SMA: 7013.494 km

Apoapsis: 679.12 km

Periapsis: 591.598 km

RAAN: 166.0273 deg

Eccentricy: 0.00623953

Argument of periapsis: 268.8003 deg

Mean anomaly: 90.6053 deg

Mean motion: 14.78090924 rev/day

Mean motion (dot): 0.00031197 rev/day2

B* drag term: 0.0041684761 1/REarth

Two-line elements (TLE)

Creation date: Dec. 12, 2025, 10:14 a.m.

Reference frame: TEME

Reference center: EARTH

Epoch: Dec. 12, 2025, 4:21 a.m. UTC

TLE line 0: 0 DELTA 1 DEB

TLE line 1: 1 26036U 75052KA 25346.18190366 .00031197 00000-0 41685-2 0 9997

TLE line 2: 2 26036 99.9507 166.0273 0062395 268.8003 90.6053 14.78090924406787

Live tracking on map

Real-time ground track for satellite DELTA 1 DEB.

In-orbit conjunctions

A list of the most updated potential collisions computed for object DELTA 1 DEB.

Target Orbit TCA Probability of collision Miss distance Type
SAC C SSO 2025-07-16 19:33:23 0.0003046443 697.0 (m) PAYLOAD
CZ-6A DEB LEO 2025-01-19 00:07:14 0.000116561 938.0 (m) DEBRIS
COSMOS 2251 DEB LEO 2024-11-13 08:46:22 0.0004991871 271.0 (m) DEBRIS
COSMOS 968 LEO 2024-06-20 12:08:00 0.0007312791 435.0 (m) PAYLOAD

Associated space launch

Experimental meteorological satellite

DELTA 1 DEB was lifted into orbit during the mission ‘Delta 2910 | Nimbus 6’, on board a Delta 2910 space rocket.

The launch took place on June 12, 1975, 8:12 a.m. from Space Launch Complex 2W.

For more information about the launch, click the button.

Launch to space Delta 2910 | Nimbus 6
Delta 2910 | Nimbus 6

Agency: N/A

Status: Launch Successful

Launch date: June 12, 1975, 8:12 a.m. UTC

Rocket: Delta 2910

Launch pad: Space Launch Complex 2W

Location: Vandenberg SFB, CA, USA

...

Latest news about this satellite

There are no fresh news available about this satellite. Check back as we update our databases every day.


Newsletter sign-up

Weekly statistics, charts and insights to help you stay on top of the space industry.